DECAYED

STARLINK-1920, 46751 (Decayed)

Orbit data source: Space-Track

STARLINK-1920, 46751 was a payload satellite owned by SpaceX/Seattle (US) in LEO that was launched on Sat, 24 Oct 2020 UTC via an FALCON 9 launch vehicle from the Air Force Eastern Test Range (AFETR). Payload-class satellites include a variety of spacecraft equipped with specific instruments for various scientific and technological missions. These include communications satellites like Starlink; space stations such as the ISS; scientific satellites like the Hubble; Earth observation satellites from companies like Planet Labs, Umbra, and HawkEye 360; GPS; miniature CubeSats for education and research; and military/defense satellites.

Not visible in the next 10 days
Identifier
46751, 2020-074N
Orbit
Decayed
Country
Flag of USUS
Related business
Manufacturer
SpaceX/Seattle
Mission
Decayed Commercial Communications
Bus & Motor
STARLINK, Unknown motor
Mass
260 kg wet, ~248 kg dry
Launch date (UTC)
2020-10-24 (5 years ago)
Launch vehicle
FALCON 9
Launch site
Air Force Eastern Test Range (AFETR)
Object type
Payload
Rocket body
Debris
Shape & HBR
Box + 1 Pan, 10.1 m
Radar Cross Section
13.562 m², Large (>1 m²)

Expand to show TLE details & history
Last TLE update: 6 months ago

TLE from 6 months ago
0 STARLINK-1920
1 46751U 20074N   25120.03525619  .18218911  12345-4  20579-2 0  9992
2 46751  53.0036 225.1856 0012310  63.3408 296.8895 16.35945919250143
Epoch: 2025-04-30T00:50Z
TLE epoch observation values (Epoch: 2025-04-30T00:50:46.134Z)
Latitude
-0.00007°
Longitude
-5.73303°
Altitude
173.891 km
Speed
7.805 km/s
True Right ascension
15h 00m 44s
True Declination
0° 00' 00"
Sunlit
Object was in full shadow at epoch
Visualization orbit readout
Latitude
Unknown
Longitude
Unknown
Altitude
Unknown
Speed
Unknown
Apparent Right ascension
Unknown
Apparent Declination
Unknown
Sunlit
N/A
Visualization observer readout
Local Sidereal Time
00:43:20
Azimuth
Unknown
Elevation
Unknown
Doppler factor
Unknown
Orbital elements
Apogee altitude
184.973 km
Perigee altitude
168.834 km
Semi-major axis
6,555.04 km
Eccentricity
0.00123
Inclination
53.0036°
RAAN
225.1856°
Arg. of periapsis
63.3408°
True anomaly
296.7636°
Mean anomaly
296.8895°
Eccentric anomaly
296.82656°
Mean motion
4.08959 °/min
Orbital period
88.03 mins
BSTAR
0.0020579
Loading maneuver chart data...
Computing Atmospheric mass density...
Loading historical data...
Loading historical data...
Loading historical data...
Loading historical data...
Loading historical data...
Loading historical data...
Loading historical data...

Documentation

Showing up to 5 results
|